Weather in Staraya Bryan'

Russia / Republic of Buryatia     51°35′03″N   108°08′01″E
temp.,
°C
wind,
m/s
gust,
m/s
humid.,
%
clouds,
%
prec.,
mm/h
press.,
hPa
HPBL,
m
4 august, wed
wed423:00+11w229210 0.0 100823
02:00+11w229397 0.0 100825
05:00+10wsw229585 0.0 100821
08:00+15nw2673100 0.0 1007471
11:00+19nw575681 0.0 10061508
14:00+19nw4853100 0.1 10051881
17:00+20nnw595398 0.3 10051877
20:00+14wnw23776 0.4 100748
5 august, thu
thu523:00+12w228555 0.0 100731
02:00+11wsw228562 0.0 100729
05:00+10wsw228714 0.0 100716
08:00+18w27595 0.0 1006571
11:00+22nw574216 0.0 10042087
14:00+20wnw485189 0.0 1003730
17:00+21wnw364687 0.0 10021346
20:00+17w11674 0.0 100311
6 august, fri
fri623:00+13wsw217590 0.0 100412
02:00+13sw1173100 0.0 100412
05:00+12ssw117446 0.0 100311
08:00+19s115414 0.0 1002228
11:00+25w123644 0.0 10012038
14:00+25w233495 0.0 9992450
17:00+25wsw223886 0.0 9981967
20:00+19sw006098 0.0 99811
7 august, sat
sat723:00+15ne116594 0.0 99911
02:00+15ene1161100 0.0 99813
05:00+12n1179100 0.4 99811
08:00+15e1279100 1.0 999118
11:00+22nne12515 0.3 998920
14:00+26nne3237100 0.3 9952125
17:00+14ene1295100 23.5 1000151
20:00+14nw2597100 23.8 1000325
8 august, sun
sun823:00+13wnw2597100 0.6 1002310
02:00+12wnw2899100 5.0 1002498
05:00+13wnw2698100 5.1 1003392
08:00+13wsw2695100 7.6 1004490
11:00+14wnw4787100 0.6 1006780
14:00+16wnw4679100 1.3 1007954
17:00+16nw4672100 0.4 10081010
20:00+13wnw228699 0.4 100922